Content
SEND FEEDBACK

Daily
Averages
Monthly
Summary
Benin

COTONOU, BENIN


Home > Africa > Benin
Elevation: 30 feet     Latitude: 06 21N     Longitude: 002 23E

WEATHER
 
SELECT A DAY
Number of Records: 175,796;   Date Range: 9/29/98 - 11/26/14
 
SHARE

PRINT THIS DATA

[ ← Previous Day ]
WEATHER ALMANAC - JANUARY 31, 2013
[ Next Day → ]
[ °C ]   °F
Weather ElementAverageHighLow
Temperature83.4 °F91.4 °F (2:00 pm)77 °F (5:30 am)
Dewpoint70.3 °F77 °F (12:30 am)53.6 °F (5:30 pm)
Humidity68.9 %100 % (5:30 am)28 % (5:30 pm)
Barometer29.83 in29.89 in (9:00 am)29.77 in (3:00 pm)
Wind Speed5.1 mph11.5 mph (1:00 pm)
Weather ElementAverage
Visibility3.5 mi
Wind DirectionSSE (159.8 °)

Weather ElementTotal
Precipitation---
Cooling Degree Days19.2 (Base 65)
Growing Degree Days34.2 (Base 50)
Averaged from 50 records on January 31, 2013
WEATHER CONDITIONS BREAKOUT
WIND DIRECTION BREAKOUT
WEATHER BY HOUR - JANUARY 31, 2013
[ °C ]   °F
Local TimeTemperatureDewpointHumidityBarometerVisibilityWind DirectionWind SpeedGust SpeedPrecipitationEventsConditions
12:30 AM82.4 °F77.0 °F84 %29.86 in5.0 miSSW (210°)6.9 mphPartly Cloudy
1:00 AM83.0 °F77.0 °F76 %29.87 in5.0 miSW (220°)4.6 mphClear
1:00 AM82.4 °F77.0 °F84 %29.86 in5.0 miSSW (210°)5.8 mphPartly Cloudy
1:30 AM80.6 °F77.0 °F89 %29.83 in5.0 miSW (220°)5.8 mphPartly Cloudy
2:00 AM80.6 °F77.0 °F89 %29.83 in5.0 miSW (230°)4.6 mphPartly Cloudy
2:30 AM80.6 °F77.0 °F89 %29.83 in5.0 miSW (230°)4.6 mphPartly Cloudy
3:00 AM78.8 °F77.0 °F94 %29.83 in5.0 miNW (310°)3.5 mphPartly Cloudy
3:30 AM78.8 °F77.0 °F94 %29.83 in5.0 miNW (310°)2.3 mphPartly Cloudy
4:00 AM78.8 °F77.0 °F94 %29.80 in5.0 miVariable2.3 mphPartly Cloudy
4:30 AM78.8 °F77.0 °F94 %29.80 in5.0 miVariable2.3 mphPartly Cloudy
5:00 AM78.8 °F77.0 °F94 %29.80 in5.0 miVariable2.3 mphPartly Cloudy
5:30 AM77.0 °F77.0 °F100 %29.83 in3.7 miNorth (350°)3.5 mphPartly Cloudy
6:00 AM77.0 °F77.0 °F100 %29.83 in3.7 miNorth (360°)3.5 mphPartly Cloudy
6:30 AM77.0 °F75.2 °F94 %29.83 in2.5 miVariable3.5 mphPartly Cloudy
7:00 AM78.0 °F76.0 °F91 %29.85 in2.0 miNorth6.9 mphMist
7:00 AM77.0 °F77.0 °F100 %29.83 in2.2 miNorth (360°)5.8 mphPartly Cloudy
7:30 AM77.0 °F77.0 °F100 %29.86 in2.2 miNorth (350°)4.6 mphPartly Cloudy
8:00 AM77.0 °F77.0 °F100 %29.86 in2.2 miNorth (350°)5.8 mphScattered Clouds
8:30 AM77.0 °F77.0 °F100 %29.86 in2.5 miNorth (360°)6.9 mphScattered Clouds
9:00 AM78.8 °F77.0 °F94 %29.89 in3.7 miNorth (350°)8.1 mphScattered Clouds
9:30 AM80.6 °F77.0 °F89 %29.89 in3.7 miNorth (360°)8.1 mphScattered Clouds
10:00 AM82.4 °F77.0 °F84 %29.89 in3.7 miNorth (350°)8.1 mphPartly Cloudy
10:30 AM84.2 °F77.0 °F79 %29.89 in4.3 miNorth (360°)6.9 mphPartly Cloudy
11:00 AM86.0 °F77.0 °F74 %29.89 in5.0 miNorth (360°)6.9 mphPartly Cloudy
11:30 AM87.8 °F75.2 °F66 %29.86 in5.6 miNorth (360°)6.9 mphScattered Clouds
12:00 PM87.8 °F73.4 °F62 %29.86 in5.6 miNorth (360°)10.4 mphScattered Clouds
12:30 PM89.6 °F71.6 °F55 %29.86 in5.6 miNorth (360°)9.2 mphScattered Clouds
1:00 PM89.0 °F65.0 °F36 %29.86 in4.0 miNE (40°)11.5 mphHaze
1:00 PM89.6 °F66.2 °F46 %29.83 in3.7 miNNE (20°)10.4 mphScattered Clouds
1:30 PM89.6 °F60.8 °F38 %29.83 in3.7 miNorth (10°)9.2 mphScattered Clouds
2:00 PM91.4 °F60.8 °F36 %29.80 in2.8 miNE (40°)10.4 mphHaze
3:00 PM91.4 °F55.4 °F29 %29.77 in2.5 miNE (40°)6.9 mphHaze
3:30 PM91.4 °F57.2 °F31 %29.77 in2.5 miNE (50°)6.9 mphHaze
4:00 PM91.4 °F57.2 °F31 %29.77 in2.5 miNE (40°)6.9 mphHaze
4:30 PM91.4 °F55.4 °F29 %29.77 in2.5 miNE (50°)4.6 mphHaze
5:00 PM91.4 °F55.4 °F29 %29.77 in2.5 miENE (70°)4.6 mphHaze
5:30 PM91.4 °F53.6 °F28 %29.77 in2.5 miVariable3.5 mphHaze
6:00 PM89.6 °F57.2 °F33 %29.77 in2.5 miEast (90°)3.5 mphHaze
6:30 PM87.8 °F57.2 °F35 %29.80 in2.5 miESE (120°)4.6 mphHaze
7:00 PM87.0 °F65.0 °F38 %29.82 in2.0 miESE (120°)4.6 mphHaze
7:00 PM86.0 °F62.6 °F45 %29.80 in2.5 miESE (110°)4.6 mphHaze
7:30 PM86.0 °F64.4 °F48 %29.80 in2.5 miSE (130°)4.6 mphHaze
8:00 PM84.2 °F66.2 °F55 %29.83 in2.5 miVariable2.3 mphHaze
8:30 PM82.4 °F68.0 °F62 %29.83 in2.5 miVariable2.3 mphHaze
9:00 PM80.6 °F69.8 °F70 %29.83 in2.5 miCalmHaze
9:30 PM80.6 °F69.8 °F70 %29.86 in2.5 miVariable1.2 mphHaze
10:00 PM78.8 °F69.8 °F74 %29.86 in2.5 miSE (130°)1.2 mphHaze
10:30 PM80.6 °F69.8 °F70 %29.86 in2.5 miCalmHaze
11:00 PM80.6 °F69.8 °F70 %29.86 in2.5 miCalmHaze
11:30 PM80.6 °F71.6 °F74 %29.86 in2.2 miCalmHaze
Hourly data recorded from DBBB, located miles away from Cotonou, Benin







STORIES FROM OUR PARTNERS